Main page
METAR-TAF:

METAR-TAF

Airports :

Karaj, Iran

Payam International Airport

latitude: 35-46-34N, longitude: 050-49-36E, elevation: 1271 m

Current weather observation

The report was made 1 hour and 1 minutes ago, at 09:00 UTC
Wind 4 kt from the Southwest
Temperature 22°C
Humidity 16%
Pressure 1015 hPa
Visibility 10 km or more
no clouds below 1500 m and no cumulonimbus

METAR: OIIP 220900Z 22004KT CAVOK 22/M05 Q1015

Time: 13:31 (10:01 UTC)


TAF: missing

Weather observations and forecasts of more than 4000 airports (METAR and TAF reports).

The available stations are represented by yellow and red dots on the map.

Hover mouse over dot to see the name of the station.

Then click to see weather observations and forecasts.

To change the map : click on the green buttons with a black cross to zoom in, on the green button with a dash to zoom out, or on the green arrows for adjacent maps.


METAR-TAF: